Flag for Germany Weather past 2 weeks in Göttingen, Lower Saxony, Germany

Now
54 °F

Passing clouds.


Feels Like: 51 °F
Forecast: 43 / 54 °F
Wind: 8 mph from Southwest

Location: Kassel / Calden

Current Time: Oct 24, 2014 at 1:31:15 PM

Latest Report: Oct 24, 2014 at 12:50 PM


Visibility: N/A

Pressure: 30.18 "Hg

Humidity: 72%

Dew point: 45 °F

Location of GöttingenLocation

Historic Weather in Göttingen — Graph

°F

Göttingen temperature yesterday

Maximum temperature yesterday: 54 °F (at 1:20 PM)
Minimum temperature yesterday: 45 °F (at 7:20 AM)
Average temperature yesterday: 50 °F

Past Weeks' High & Low Weather Summary

 TemperatureHumidityPressure
High68 °F (Oct 19, 2:50 PM)100% (Oct 9, 6:50 PM)30.21 "Hg (Oct 9, 6:50 PM)
Low45 °F (Oct 22, 5:50 AM)59% (Oct 15, 3:20 PM)29.47 "Hg (Oct 21, 5:50 PM)
Average56 °F85%29.91 "Hg
* Reported Oct 9 12:20 PM — Oct 24 12:20 PM, Göttingen, Weather by CustomWeather, © 2014

Note: Actual official high and low records may vary slightly from our data, if they occured in-between our weather recording intervals... More about our weather records

Advertising

Göttingen weather history for previous 24 hours

 ConditionsComfort  
Time TempWeatherWind HumidityBarometerVisibility
12:20 PM
Oct 24
52 °FPassing clouds.8 mph77%30.18 "HgN/A
11:50 AM50 °FPassing clouds.9 mph82%30.18 "HgN/A
11:20 AM50 °FPassing clouds.7 mph82%30.21 "HgN/A
10:50 AM48 °FPassing clouds.8 mph87%30.21 "HgN/A
10:20 AM48 °FPassing clouds.10 mph87%30.21 "HgN/A
9:50 AM48 °FPassing clouds.7 mph87%30.21 "HgN/A
9:20 AM48 °FPassing clouds.7 mph87%30.18 "Hg6 mi
8:50 AM48 °FPassing clouds.7 mph87%30.18 "Hg6 mi
8:20 AM46 °FPassing clouds.8 mph93%30.18 "HgN/A
7:50 AM48 °FPassing clouds.3 mph87%30.18 "HgN/A
7:20 AM48 °FOvercast.3 mph87%30.18 "Hg6 mi
6:50 AM48 °FOvercast.2 mph94%30.18 "Hg6 mi
6:20 AM48 °FOvercast.3 mph94%30.18 "Hg5 mi
5:50 AM48 °FOvercast.5 mph94%30.18 "Hg6 mi
9:50 PM
Oct 23
50 °FPassing clouds.6 mph88%30.21 "HgN/A
9:20 PM50 °FPassing clouds.7 mph88%30.21 "HgN/A
8:50 PM50 °FPassing clouds.1 mph88%30.21 "HgN/A
8:20 PM50 °FPassing clouds.2 mph88%30.21 "HgN/A
7:50 PM50 °FPartly cloudy.6 mph88%30.21 "HgN/A
7:20 PM50 °FPartly cloudy.5 mph88%30.21 "HgN/A
6:50 PM50 °FBroken clouds.3 mph88%30.21 "HgN/A
6:20 PM50 °FScattered clouds.2 mph82%30.21 "HgN/A
5:50 PM52 °FPartly sunny.2 mph82%30.21 "HgN/A
5:20 PM52 °FPartly sunny.5 mph82%30.21 "HgN/A
4:50 PM52 °FMostly cloudy.3 mph82%30.21 "HgN/A
4:20 PM52 °FBroken clouds.5 mph82%30.21 "HgN/A
3:50 PM52 °FMore clouds than sun.7 mph82%30.21 "HgN/A
3:20 PM52 °FPartly sunny.9 mph82%30.21 "HgN/A
2:50 PM54 °FBroken clouds.9 mph72%30.21 "HgN/A
2:20 PM54 °FBroken clouds.6 mph67%30.21 "HgN/A
1:50 PM54 °FBroken clouds.6 mph67%30.21 "HgN/A
1:20 PM54 °FBroken clouds.6 mph67%30.21 "HgN/A
Weather by CustomWeather, © 2014

See weather overviewHow to use our weather pages